Theta_e
315 315 315 316 316 317 319 321 320 321 322 316 317 319 320 323 323 322 322 324 323 329 334 339 341 340 345 343 343 344 344 344 343 339 342 352 351 350 352 351 352 349 349 343 337 335 330 329 326 328 324 312 312 315 316 316 317 317 316 315 315 316 319 324 330 331 332 333 334 336 337 337 336 337 336 336 337 337 337 337 337 336 336 334 333 332 331 330 328 327 328 330 332 332 332 332 330
315 315 315 315 316 318 320 321 318 318 318 314 318 319 321 323 322 322 322 323 323 331 336 341 343 343 347 346 344 344 345 349 351 352 350 351 351 352 351 351 351 349 348 343 337 334 330 330 328 328 324 312 312 315 316 317 317 318 317 315 316 320 324 329 331 330 331 333 334 336 337 337 337 337 337 337 337 337 337 337 337 336 335 333 331 330 330 330 327 328 331 333 333 333 333 333 329
314 314 315 316 318 319 320 320 317 315 315 314 317 322 323 322 322 322 323 322 323 332 336 340 343 345 345 344 344 342 346 350 351 353 350 350 351 351 351 351 350 349 348 342 336 334 330 331 329 328 325 313 311 315 316 317 318 319 318 316 319 323 327 328 329 330 332 334 336 337 337 338 337 337 337 337 337 336 336 336 335 334 333 331 330 328 328 327 325 329 333 334 334 335 334 333 332
313 314 315 316 318 319 320 320 318 316 314 314 316 322 323 321 322 321 323 321 322 329 335 338 340 345 343 342 345 343 346 352 352 352 351 350 350 351 352 350 349 349 346 339 336 334 331 331 329 329 326 314 311 315 316 317 318 319 318 318 322 325 327 328 330 334 337 337 337 338 338 337 337 337 337 337 336 335 335 334 333 333 332 331 330 329 328 324 323 331 334 334 335 334 332 329 327
313 314 314 316 319 319 321 320 319 317 315 316 316 321 322 321 322 321 322 321 322 328 335 336 336 344 344 345 346 345 349 353 352 351 351 350 350 351 351 350 349 348 344 339 336 334 331 330 329 329 326 315 310 315 316 317 318 319 320 320 323 326 329 332 335 338 338 338 338 338 337 337 337 336 336 336 335 334 333 332 332 331 331 330 329 327 326 322 320 330 335 334 332 330 326 323 320
313 315 315 316 318 319 319 317 317 317 318 321 318 321 322 321 322 321 321 320 323 329 333 331 332 338 341 347 346 349 353 352 353 351 351 350 351 351 350 350 349 348 343 339 337 335 332 330 330 329 326 316 310 314 316 318 318 319 320 322 326 331 334 336 338 339 338 338 337 337 336 336 336 335 335 335 333 331 329 329 329 328 327 326 324 321 321 318 316 326 333 330 328 325 321 320 318
314 316 316 316 318 318 317 315 316 317 320 322 320 321 321 321 321 320 321 320 322 327 330 329 332 331 335 345 344 348 347 348 353 351 350 350 350 351 351 350 348 348 344 339 338 335 332 332 331 330 326 318 311 312 316 318 319 319 320 324 330 334 336 337 338 338 338 337 336 335 336 335 335 334 333 332 329 325 321 321 320 319 317 316 315 314 314 313 311 319 328 327 325 321 319 319 318
314 316 318 317 317 318 316 315 317 318 320 321 321 321 320 321 319 320 320 320 320 323 328 329 332 330 335 343 343 350 345 347 352 350 351 349 350 350 350 349 347 347 344 339 340 336 332 334 333 331 327 320 313 310 314 317 318 320 320 324 330 334 336 337 338 338 338 336 335 335 335 334 333 332 330 326 321 316 313 312 312 311 310 309 309 309 309 309 311 319 326 326 323 319 319 319 319
314 315 317 316 316 317 316 316 317 319 320 320 321 320 320 320 319 320 318 320 319 320 323 321 329 328 334 341 342 351 348 348 350 350 350 349 350 349 349 348 345 346 344 339 340 336 333 335 334 333 328 322 316 311 312 316 318 319 320 323 328 332 334 336 336 336 336 335 334 334 334 332 330 328 324 319 314 311 309 308 308 308 308 308 308 308 307 308 314 322 326 324 321 320 320 319 320
315 315 316 316 315 314 314 315 316 318 319 319 320 319 319 319 320 320 318 320 319 320 319 318 327 328 334 340 342 352 349 348 350 349 350 350 350 350 349 346 344 345 342 340 340 336 335 337 335 334 330 325 319 313 311 313 316 317 318 320 324 328 331 333 333 333 334 334 333 333 332 329 327 324 318 314 311 309 308 308 308 308 308 308 308 307 307 309 316 323 324 322 320 321 321 321 321
316 315 316 316 314 312 312 314 316 318 319 319 319 319 318 318 319 319 318 318 318 319 318 319 324 326 332 337 346 352 349 348 350 350 349 350 349 349 347 346 344 345 342 341 341 337 335 337 335 335 333 329 323 315 311 311 314 314 316 318 320 325 328 330 332 333 333 334 332 331 330 327 323 319 314 312 310 309 308 308 309 308 308 308 308 308 308 310 317 323 323 320 320 321 323 322 322
316 316 316 314 313 314 314 314 316 318 318 318 318 318 318 317 317 317 318 317 318 319 318 321 322 325 329 332 349 350 346 349 350 349 349 349 348 348 346 345 344 344 343 341 342 338 336 337 336 335 334 333 327 319 313 311 311 312 314 316 319 322 325 329 332 334 333 332 331 329 328 325 320 316 313 312 310 309 309 309 309 309 308 308 308 308 308 310 316 322 322 320 319 322 323 323 324
315 317 315 313 314 315 315 315 316 317 317 317 318 318 317 317 317 317 318 319 320 319 320 321 322 328 327 333 351 349 347 349 350 349 349 348 347 346 345 345 344 343 342 342 343 340 339 338 336 335 335 334 330 324 317 312 311 311 313 315 317 320 323 328 331 333 332 330 329 327 326 323 318 315 312 311 310 309 309 309 309 309 308 308 308 308 308 310 316 321 320 319 320 322 323 324 325
315 317 316 315 316 316 316 315 315 315 315 317 318 317 317 317 317 319 320 322 322 323 323 321 324 329 328 338 350 350 350 349 350 349 349 348 347 346 345 345 344 343 342 342 342 341 341 340 338 336 335 335 332 327 320 316 313 311 311 313 316 318 320 326 329 330 330 328 326 325 324 322 319 315 313 312 310 309 310 309 310 310 309 309 308 308 308 309 315 319 319 319 320 322 323 324 325
315 316 316 315 315 315 315 314 315 314 315 318 317 316 317 317 318 320 325 329 330 330 328 325 326 327 332 337 341 349 350 349 350 350 349 349 347 346 346 345 344 344 342 342 342 342 341 341 340 337 336 335 333 330 322 318 315 312 311 311 314 316 319 323 325 325 327 325 324 325 324 321 319 315 313 312 310 310 310 310 310 310 310 309 309 308 308 309 313 318 319 319 320 322 323 324 325
315 316 315 315 314 314 315 315 316 314 316 317 316 317 317 318 318 321 332 336 337 334 330 330 328 329 336 335 336 348 348 348 351 350 349 349 348 347 346 345 344 344 343 342 342 342 341 341 340 338 338 337 335 333 326 320 316 313 311 311 313 315 318 322 324 324 324 324 324 324 323 324 323 319 315 312 311 310 310 310 310 310 310 310 309 309 308 309 312 317 319 319 320 322 323 323 324
315 316 314 314 314 314 315 316 316 315 317 317 316 317 317 318 317 326 339 339 338 333 329 333 332 334 341 339 344 350 345 348 350 349 349 348 348 348 347 346 345 344 343 343 342 342 341 341 341 339 339 339 338 335 331 325 318 314 311 311 312 313 318 322 325 324 325 323 321 322 327 331 331 330 325 316 313 312 311 311 310 310 310 310 310 309 308 308 311 316 318 319 320 322 323 323 323
315 315 314 315 315 315 316 316 317 316 317 317 317 317 317 318 317 325 336 340 340 333 332 340 340 340 345 346 350 348 342 347 349 349 349 348 348 348 348 347 346 344 344 343 342 341 341 341 341 339 339 340 339 338 336 331 321 317 312 312 315 316 318 324 329 328 330 326 319 325 332 335 334 335 333 325 323 319 313 312 311 310 311 310 310 310 309 309 310 314 316 318 320 322 322 325 325
315 315 314 315 316 317 317 317 317 316 317 317 318 318 317 317 317 321 325 335 342 335 335 343 343 343 346 349 351 346 343 348 349 349 349 349 348 348 348 347 346 345 344 344 342 341 341 341 340 339 339 339 339 339 339 334 329 326 318 318 324 324 323 329 333 331 332 330 327 331 334 332 332 334 329 322 323 319 315 315 313 312 311 311 311 310 309 309 309 311 315 317 320 321 324 329 330
315 316 315 316 317 317 316 317 316 316 316 317 318 318 317 317 318 319 322 330 337 336 335 340 343 344 345 351 351 346 346 349 349 349 348 348 348 348 348 347 346 345 344 344 343 341 341 340 339 339 339 339 339 339 339 338 335 332 328 327 330 332 329 331 334 332 332 331 329 332 333 326 325 329 321 317 320 318 318 316 316 316 314 314 312 312 312 310 309 309 312 315 319 322 328 333 333
315 316 316 317 318 316 316 316 315 316 315 317 317 317 317 318 317 319 325 327 332 337 336 338 341 343 346 351 351 347 348 349 349 349 348 348 347 347 347 346 345 345 344 344 343 341 340 340 339 339 339 339 339 338 339 338 336 334 332 331 333 334 333 333 333 332 332 328 325 328 328 318 320 329 326 324 323 316 315 313 316 319 321 321 315 317 321 316 312 312 311 314 319 323 329 332 332
316 317 316 317 318 316 317 316 315 316 316 317 317 317 317 318 318 320 322 322 328 339 338 337 342 344 348 351 351 349 349 349 348 348 348 347 346 346 346 345 345 344 343 343 343 341 340 339 338 339 339 339 339 338 338 337 335 335 332 326 329 333 334 334 333 331 327 322 320 320 320 317 322 327 321 321 319 314 317 315 315 317 319 321 317 321 325 321 321 323 319 317 317 319 326 329 329
316 317 317 317 318 316 317 317 316 316 316 317 317 318 318 318 318 319 321 322 328 340 342 340 345 347 348 350 351 350 348 348 348 347 347 346 345 345 344 344 344 344 343 343 343 341 340 339 339 340 339 339 339 337 337 336 334 334 328 316 320 328 329 331 331 327 321 313 314 312 315 320 320 319 318 323 326 327 330 327 327 326 324 322 319 321 321 318 323 328 327 322 318 316 319 324 327
315 316 316 317 317 317 317 317 317 317 317 317 317 317 318 318 318 319 322 324 330 340 344 344 346 347 348 349 350 349 348 347 347 346 346 345 344 344 343 343 343 343 343 342 342 341 340 339 339 339 338 339 338 335 336 335 334 332 323 313 320 323 320 324 323 318 314 310 312 311 312 319 322 325 330 334 335 335 336 335 336 335 334 332 329 327 326 324 324 326 328 327 325 322 321 321 325
314 314 317 317 317 316 316 316 317 317 317 317 317 317 318 317 319 320 321 327 337 343 345 347 347 347 347 349 350 349 348 346 346 345 345 344 344 343 342 342 342 342 342 342 342 340 340 339 339 338 338 338 336 333 334 334 333 328 319 320 323 320 317 317 315 312 313 312 314 316 318 325 331 335 337 337 337 337 337 336 335 335 335 336 335 334 333 332 330 330 328 328 329 329 328 327 326
314 314 316 317 317 316 316 316 316 316 317 317 317 317 317 320 322 321 323 334 345 346 345 348 347 347 348 348 349 348 348 347 345 344 344 343 343 343 342 342 341 341 341 341 341 340 340 339 339 338 337 336 332 331 333 333 330 324 324 327 321 318 318 314 313 315 315 318 324 325 328 333 336 338 338 338 338 337 337 336 336 336 335 335 335 334 334 335 335 336 334 331 331 331 331 331 329
316 315 315 317 316 316 317 317 317 317 317 317 317 317 318 325 326 321 330 343 347 347 347 347 346 346 347 346 348 348 347 346 345 344 344 344 343 343 342 342 342 341 341 340 340 340 339 339 338 338 336 332 328 330 333 331 325 323 325 325 322 323 320 316 321 323 323 328 332 331 332 335 337 338 337 337 337 337 337 336 336 336 336 335 334 333 333 333 334 336 335 333 332 332 331 332 331
316 315 315 316 315 316 317 317 317 317 317 317 317 317 317 325 325 322 335 347 348 348 347 347 346 346 346 346 348 348 347 346 345 344 344 344 344 343 343 343 343 342 342 341 340 340 339 337 336 337 334 326 323 328 331 327 321 320 321 323 327 327 322 327 331 331 332 333 332 331 333 335 336 336 336 336 336 336 336 336 336 335 335 335 333 332 332 332 332 333 332 331 331 332 332 332 331
315 315 315 315 315 315 316 317 317 317 317 317 317 316 315 320 323 324 335 345 349 348 347 347 346 346 345 347 348 348 347 345 345 344 344 344 344 344 343 343 343 343 343 342 341 340 338 335 334 334 329 322 321 324 326 323 317 316 323 329 331 328 330 335 336 335 334 333 331 332 334 334 335 337 336 336 335 335 336 335 335 335 335 334 333 333 333 333 333 333 332 332 332 333 334 334 333
314 314 314 314 314 314 315 316 317 317 317 317 317 314 315 318 321 328 336 342 349 348 347 346 346 346 346 347 348 347 346 345 345 344 344 344 344 343 343 343 343 343 343 342 342 340 336 333 332 331 325 321 320 320 322 320 318 323 331 334 332 331 335 336 337 337 335 333 333 333 334 334 334 336 335 335 335 336 336 336 335 336 335 334 334 334 334 334 334 334 334 335 336 335 336 335 335
313 312 313 314 313 313 316 316 316 316 316 317 317 313 316 319 319 331 337 340 347 347 347 347 346 346 346 347 347 347 346 345 345 344 344 344 343 343 343 343 343 343 343 343 343 341 336 332 333 331 324 320 319 319 318 317 323 331 335 336 334 334 336 336 337 337 335 335 334 334 334 333 333 333 333 335 336 337 337 336 337 336 336 335 335 334 334 334 335 335 334 335 336 336 336 335 335
312 312 311 312 313 314 316 316 316 316 316 317 316 313 317 319 320 333 338 340 345 346 347 347 346 346 347 347 347 346 346 344 344 344 344 344 344 343 343 343 343 344 344 343 343 342 338 332 333 332 324 322 321 319 316 316 326 334 335 335 334 333 334 336 336 335 334 335 335 335 334 332 333 332 332 334 336 337 337 337 337 336 335 335 335 334 334 335 335 334 334 334 334 335 335 336 336
313 312 311 312 312 314 315 316 316 316 317 317 316 315 318 319 325 337 340 341 345 345 346 346 345 347 347 347 347 346 345 344 344 343 343 344 344 344 343 343 343 342 343 342 340 342 340 334 333 332 327 327 325 322 320 321 329 334 334 335 335 335 335 335 335 334 334 334 334 335 334 332 332 333 333 334 335 336 337 337 336 335 334 333 334 334 334 334 334 333 333 334 334 334 334 336 336
312 312 312 313 312 313 314 315 316 316 316 316 316 316 318 320 328 340 342 343 345 345 346 346 346 347 347 347 347 346 344 343 343 343 343 343 342 341 341 343 343 341 341 340 338 341 340 335 334 332 329 331 331 329 327 327 331 333 334 335 336 337 336 335 334 333 334 334 334 334 334 334 334 335 335 335 336 336 336 335 335 334 333 332 333 333 334 334 333 332 332 333 333 333 334 335 335
312 312 312 314 313 313 314 314 315 316 316 316 316 316 318 322 327 335 340 342 344 345 347 347 346 346 346 346 345 345 344 342 342 342 343 342 340 339 339 340 341 341 340 340 338 339 338 336 335 331 330 332 332 332 331 330 332 335 336 336 336 336 336 335 333 333 334 335 335 335 335 335 336 336 336 335 336 336 335 334 334 333 332 332 333 333 333 333 333 333 331 332 332 332 333 333 333
313 313 313 313 312 312 315 315 315 315 315 316 316 316 316 321 325 329 337 342 343 344 347 346 346 345 345 344 343 344 343 341 341 342 342 339 337 338 337 338 340 340 340 340 338 339 339 337 336 332 329 331 332 332 332 330 332 335 337 337 336 336 336 335 333 334 336 336 336 336 336 336 337 337 335 335 335 335 334 333 333 332 331 331 331 333 334 333 333 333 332 331 331 332 333 333 333
314 313 313 313 312 313 315 315 315 315 315 316 316 317 316 319 323 326 336 342 342 345 347 346 345 344 344 344 343 343 341 339 339 339 338 335 334 337 336 336 339 339 339 340 339 338 338 337 336 332 329 331 333 333 332 331 333 336 337 337 336 337 337 335 335 336 337 336 336 336 336 336 336 336 336 335 335 334 333 334 334 333 332 332 331 332 333 332 332 332 333 332 331 331 332 334 334
314 313 312 312 313 313 315 315 314 314 315 316 316 317 316 319 322 325 335 341 341 343 346 346 346 344 344 343 342 341 339 338 338 337 336 335 334 336 336 337 338 339 340 340 339 338 338 337 336 331 329 332 335 336 336 336 336 337 338 338 338 337 337 336 336 336 336 337 336 336 336 335 335 335 335 335 335 334 334 334 334 333 333 334 333 332 332 332 332 332 332 332 330 330 331 332 332
313 313 312 312 313 314 315 315 314 314 315 316 317 316 316 319 321 324 334 341 341 340 341 343 343 341 341 342 341 340 338 337 338 338 336 335 335 336 336 338 338 338 339 339 339 339 338 339 335 329 330 336 338 338 339 339 339 339 338 338 338 337 336 336 337 337 337 337 336 335 335 335 335 335 335 335 334 334 334 334 334 334 333 333 333 333 333 333 333 333 333 333 332 332 332 332 331
313 313 312 311 313 313 313 314 314 314 315 316 317 316 316 319 322 324 332 339 340 341 340 340 340 338 337 338 341 341 338 338 339 339 338 336 337 338 337 338 338 337 338 338 339 339 339 339 335 330 332 337 339 339 339 339 339 338 339 338 337 337 337 337 337 337 336 336 335 335 334 334 335 335 335 335 334 334 334 333 333 334 334 333 333 334 334 333 333 333 333 333 332 333 333 333 333
313 313 313 312 313 313 313 314 315 314 314 315 316 315 316 321 325 326 331 335 338 342 343 342 342 340 337 339 342 342 339 340 340 340 339 338 338 338 337 339 338 337 337 338 339 339 339 339 335 333 334 337 339 339 339 339 338 338 338 338 337 337 337 336 336 336 336 335 335 335 334 334 334 335 335 335 334 334 333 334 333 333 334 334 334 334 334 334 333 333 332 332 332 332 333 334 333
313 313 314 314 314 314 314 314 314 313 313 315 315 313 314 321 324 324 327 331 335 341 343 341 341 341 341 342 343 341 340 341 341 340 339 338 338 338 338 338 337 337 337 338 338 338 338 338 338 336 337 338 339 339 339 338 338 338 338 337 337 337 336 336 337 337 336 336 335 335 335 334 334 335 335 335 335 334 334 334 334 334 333 333 334 333 333 334 333 332 332 332 332 332 332 332 332
312 313 314 314 314 314 313 314 313 312 312 314 315 313 313 316 320 322 326 328 331 336 339 338 338 340 343 343 342 341 341 340 341 340 339 338 338 337 336 336 336 337 337 337 337 338 339 339 339 339 339 339 339 339 338 337 337 338 337 337 336 336 337 336 337 335 334 334 334 334 335 335 334 334 335 335 335 334 334 333 333 333 331 332 333 332 333 333 332 332 332 332 331 331 331 331 331
312 313 313 313 313 313 313 313 313 313 314 315 314 314 313 314 317 322 325 326 328 332 335 336 336 337 340 342 341 341 340 340 341 340 339 338 337 337 336 336 336 336 337 338 338 338 339 339 339 339 339 338 338 337 337 337 337 338 338 336 335 336 336 335 334 333 333 333 333 333 334 334 334 334 334 333 333 332 332 331 332 331 330 330 330 331 331 332 332 332 331 331 331 330 330 330 330
312 313 313 313 313 313 313 313 313 314 315 313 313 314 312 313 316 319 322 324 326 329 331 332 334 335 338 341 341 340 339 340 341 340 338 337 337 338 337 336 335 335 337 338 338 339 339 339 339 338 337 337 337 337 337 338 337 337 337 335 335 335 335 333 333 333 333 333 333 333 333 333 333 332 332 331 331 331 330 329 328 329 329 329 328 328 329 330 330 330 329 329 330 330 330 330 330
312 313 313 313 313 313 313 313 313 313 314 313 313 313 311 312 316 317 319 321 323 327 328 329 331 333 336 340 340 340 340 340 340 339 339 338 337 338 338 336 335 336 338 339 339 340 339 339 339 338 337 337 337 336 337 337 336 336 336 335 334 334 333 333 333 332 332 332 332 332 332 331 331 331 331 330 329 328 327 325 324 325 327 326 325 326 328 328 328 328 328 328 329 329 329 329 329
312 312 312 313 313 313 314 314 313 313 313 313 313 313 312 311 314 316 318 319 322 326 327 327 330 333 337 340 339 339 339 340 340 339 339 338 337 338 337 336 336 337 338 338 339 339 339 338 338 337 337 337 336 336 336 335 335 334 334 334 334 333 332 332 332 332 332 331 331 331 331 330 330 329 329 328 326 323 322 321 320 321 323 324 325 326 327 328 328 328 327 327 328 328 328 328 327
311 311 311 311 312 313 313 313 313 313 313 313 313 314 313 311 313 317 320 319 319 324 326 327 329 333 338 340 338 338 339 340 339 339 339 338 337 338 337 336 338 338 338 338 338 338 338 337 337 337 336 336 335 334 334 334 333 333 333 333 332 332 331 331 331 331 330 330 330 329 329 329 328 327 326 324 322 320 320 319 318 319 321 321 322 322 323 325 326 327 327 327 328 328 328 327 327
311 311 311 311 311 313 313 313 313 313 313 313 313 313 313 312 314 319 321 320 319 321 324 325 328 333 337 339 338 338 340 340 339 339 338 337 337 337 336 337 338 338 338 338 337 337 336 336 336 335 334 334 333 333 333 332 332 332 331 331 331 331 330 330 330 329 328 328 328 327 326 326 325 324 322 320 319 318 318 318 318 318 318 318 318 318 318 320 321 323 325 326 327 328 327 327 327
310 310 310 311 311 313 314 314 313 313 313 313 313 314 313 312 315 322 325 327 328 327 327 325 327 332 336 338 338 338 339 339 339 339 338 336 337 337 336 337 337 337 337 336 336 335 335 335 335 334 333 333 332 332 332 331 330 330 330 330 329 329 328 328 327 327 326 326 325 325 324 323 323 322 320 318 318 317 317 317 317 317 317 317 317 317 317 317 318 319 322 323 325 326 327 327 327
310 311 311 311 311 313 313 313 313 313 313 313 313 314 312 312 319 327 331 332 333 333 332 330 329 332 336 337 337 338 339 339 339 339 337 336 336 336 336 336 336 335 335 335 335 334 334 334 333 333 332 331 331 330 330 329 329 329 329 328 328 327 326 326 326 325 324 323 323 322 321 320 320 320 319 317 317 316 316 316 316 316 316 316 316 316 316 318 318 317 318 319 321 324 326 326 326
311 312 311 311 311 312 312 313 314 313 313 314 313 313 315 320 326 329 329 330 333 333 334 334 334 336 336 336 338 338 338 339 339 338 337 336 336 336 336 335 335 334 334 334 334 334 333 333 332 331 331 330 329 329 329 328 328 328 328 327 326 325 324 324 323 322 321 320 320 320 320 318 318 318 317 316 316 316 316 316 315 315 315 315 315 315 316 317 317 315 316 318 319 322 324 324 324
311 311 310 312 313 313 312 313 315 313 313 315 314 313 318 323 327 329 328 328 330 332 334 336 337 337 336 337 338 338 339 340 339 337 336 336 336 335 335 333 332 333 333 333 334 333 333 332 331 330 330 329 328 328 328 327 327 327 326 325 323 321 320 321 320 319 319 319 318 318 318 317 317 316 316 316 315 315 315 315 315 315 315 315 315 315 315 315 315 315 316 317 318 319 320 320 321
311 310 311 312 313 314 313 313 313 313 313 315 313 314 316 317 322 329 330 329 329 330 333 336 338 337 337 337 337 338 339 339 338 337 336 334 334 333 332 331 330 331 332 332 333 332 331 331 330 330 329 328 327 327 326 326 325 324 324 322 320 319 319 319 319 318 318 318 317 317 316 316 316 315 315 315 315 315 315 314 314 314 314 314 314 314 314 314 315 315 315 315 316 317 317 317 319
312 311 312 313 312 312 312 313 314 313 313 313 313 314 314 315 322 328 329 330 331 330 332 335 336 337 337 337 337 338 338 337 336 335 333 332 332 331 331 331 330 330 331 332 331 331 330 330 329 328 328 327 326 325 324 324 323 322 321 320 319 319 318 318 317 317 317 316 316 315 315 315 315 314 314 314 314 314 314 314 314 314 314 314 314 314 314 314 315 315 315 315 316 316 317 317 318
312 312 312 312 312 312 312 312 313 313 313 312 313 315 315 316 322 325 325 329 332 332 332 334 336 337 337 337 338 337 336 336 334 331 331 331 332 331 331 331 331 330 331 331 330 330 330 330 329 328 327 326 325 324 323 322 321 320 320 319 318 318 317 317 316 316 316 315 315 315 314 314 314 314 314 314 314 313 313 313 313 314 314 314 315 315 315 315 315 316 316 316 317 317 317 319 319
311 311 311 311 312 312 313 312 312 312 312 312 314 316 316 319 324 324 322 326 331 333 332 334 336 336 337 338 336 334 333 333 332 330 331 332 332 331 331 331 330 329 330 330 329 330 330 329 327 326 325 324 323 323 321 320 320 319 318 318 317 317 317 316 315 315 315 314 314 314 314 313 313 313 313 313 313 313 313 313 314 315 315 316 316 316 316 316 315 316 316 317 318 318 320 321 321
311 311 311 311 312 312 313 313 312 311 312 313 314 314 317 325 329 329 327 326 330 333 333 334 336 336 336 335 332 330 331 331 331 331 331 331 331 331 331 330 329 328 328 329 329 329 328 326 324 323 322 322 321 321 320 319 319 318 318 316 315 315 316 315 315 314 314 314 313 313 313 313 313 313 313 313 313 313 313 314 315 316 316 316 316 316 316 316 316 316 317 317 319 320 322 322 322
Wind_Speed
11 10 9 8 6 8 8 6 8 4 4 8 7 7 3 2 4 7 8 4 3 3 7 4 1 2 1 3 2 3 4 4 6 3 1 4 7 13 16 16 22 23 20 24 25 22 20 18 16 14 11 11 12 12 12 14 14 15 16 16 17 17 18 18 17 16 15 15 14 13 13 12 12 13 13 13 13 12 11 11 10 10 10 10 10 11 11 10 9 10 10 10 9 10 10 11 10
11 10 8 7 5 7 6 3 7 6 6 9 7 7 3 2 6 9 8 6 4 4 4 3 1 3 1 3 2 3 2 2 6 6 6 7 10 13 16 17 21 22 19 25 26 22 22 18 17 14 11 11 12 12 12 14 15 15 16 16 17 18 18 17 16 15 14 14 13 13 12 11 11 12 12 12 11 11 11 10 10 9 9 9 9 9 9 9 9 10 11 10 9 9 11 11 11
10 8 5 5 4 6 7 4 7 8 8 9 7 5 3 6 10 9 7 6 3 2 2 0 2 3 2 4 3 4 1 2 3 8 8 9 10 13 16 18 21 21 19 25 26 22 22 19 17 14 11 12 12 12 12 13 15 15 16 16 17 17 17 16 15 14 13 12 12 12 12 11 11 11 11 11 10 10 10 9 9 8 8 8 8 7 7 7 9 11 11 10 9 9 10 10 9
9 7 4 5 6 6 6 6 6 8 9 8 7 6 5 9 10 8 6 5 2 3 4 3 4 2 5 5 0 4 1 3 3 6 7 9 9 15 17 19 22 19 20 26 26 22 22 19 17 14 11 12 12 12 12 13 14 15 15 16 16 16 15 15 14 13 13 13 11 11 11 11 10 10 10 10 10 9 8 7 7 7 7 7 5 5 4 6 9 11 11 10 9 9 9 8 9
7 5 4 5 7 5 4 6 6 8 9 8 8 7 7 10 9 5 4 3 2 5 5 5 4 2 3 3 2 3 2 3 4 5 8 10 11 17 19 21 21 18 22 27 25 22 21 19 16 14 11 11 12 12 12 12 13 14 15 16 16 15 14 13 13 13 13 13 12 11 10 10 10 9 10 9 8 7 6 6 6 6 5 4 3 3 3 5 9 11 11 10 9 9 9 9 10
5 4 5 7 6 4 5 7 8 10 10 11 10 8 9 11 8 3 4 3 2 5 5 6 5 2 3 3 3 1 1 2 4 6 10 13 15 19 21 21 20 18 22 26 23 21 20 19 16 13 11 11 13 12 12 12 13 14 15 15 15 14 13 13 13 13 12 12 12 11 10 10 10 9 9 8 7 5 4 4 4 4 4 3 3 2 3 5 8 11 11 10 10 10 11 11 11
6 6 6 7 6 5 8 10 10 11 11 12 11 10 10 8 5 5 5 5 4 5 5 5 4 6 3 3 4 4 6 4 6 6 11 14 18 21 21 19 18 18 22 24 22 21 20 19 16 13 11 11 12 12 13 12 13 13 14 15 14 13 12 12 13 13 12 12 12 11 10 9 9 9 8 7 6 5 4 3 3 3 3 3 3 3 4 5 8 10 10 9 10 12 12 12 11
8 9 7 7 6 6 8 11 12 11 10 9 9 10 11 5 2 6 5 5 6 5 6 4 4 8 3 3 4 4 6 6 7 8 14 15 18 21 19 18 19 18 20 22 20 20 20 18 16 13 11 11 11 12 13 12 13 13 14 14 13 13 12 12 13 13 12 12 11 11 10 9 8 7 7 6 5 5 5 4 3 3 3 3 4 4 6 7 9 10 10 10 11 13 12 12 12
9 9 6 7 8 7 9 11 12 13 11 8 8 10 12 9 3 6 9 9 10 8 10 8 6 8 3 6 5 3 5 6 9 12 15 15 18 21 20 19 20 19 19 22 20 21 21 19 16 14 11 11 11 11 13 13 12 12 13 14 13 13 12 12 12 13 12 12 11 10 9 8 7 6 6 6 5 6 6 5 4 3 2 3 4 6 7 8 11 11 10 10 12 13 12 11 12
10 11 7 6 8 10 11 10 10 11 11 11 11 11 14 14 7 9 13 13 13 11 13 10 9 10 5 8 6 5 7 7 11 14 15 16 19 21 21 20 20 19 20 22 19 20 23 19 17 14 12 11 10 11 12 12 12 11 12 12 12 12 12 12 12 12 12 12 11 10 8 8 7 6 6 6 6 7 6 6 5 4 3 4 5 7 8 9 11 11 10 11 12 12 11 11 11
10 10 8 7 9 10 10 10 11 9 9 10 10 12 14 15 13 13 14 15 16 15 13 9 11 14 10 9 6 7 10 11 14 16 16 17 19 19 19 19 20 18 19 21 17 20 23 19 17 15 13 11 10 10 11 11 11 10 10 11 11 11 12 12 12 12 13 12 11 10 8 7 7 6 6 7 7 7 6 5 5 5 5 5 6 7 9 10 11 10 10 11 12 12 11 10 10
10 8 8 8 9 10 10 11 10 8 8 9 9 12 12 13 13 13 13 14 14 14 14 12 10 11 13 10 7 9 12 13 16 17 17 18 18 17 18 18 19 17 17 19 16 19 22 20 19 16 14 12 10 10 10 10 10 10 9 10 11 11 11 12 13 12 12 11 10 9 8 7 6 7 8 8 7 7 6 5 5 5 6 6 7 8 9 9 10 10 10 10 12 11 10 9 9
11 7 7 8 9 9 10 9 8 7 7 9 8 8 8 10 11 9 11 12 12 12 12 15 12 9 12 9 8 10 13 16 18 18 18 18 19 17 17 17 17 17 17 18 16 17 20 20 19 18 16 13 11 10 10 10 9 10 10 10 11 11 11 13 13 12 11 10 9 8 8 8 7 8 8 8 8 7 6 6 5 6 6 6 7 7 8 9 10 9 9 10 11 11 10 9 8
13 9 8 7 8 8 8 8 8 8 7 6 5 5 6 8 8 8 10 11 12 11 9 12 15 12 11 9 8 12 16 19 20 18 19 19 19 18 17 18 17 16 17 17 16 16 18 18 18 19 17 15 13 12 11 10 9 10 10 11 11 11 12 13 13 12 10 10 9 8 8 7 7 7 8 8 7 7 6 5 5 5 6 6 6 7 8 9 9 9 8 8 9 10 9 8 8
12 10 7 7 7 7 8 9 8 8 6 4 7 6 5 6 5 7 7 9 10 6 6 9 16 12 9 13 11 16 21 23 22 19 21 20 19 19 17 18 17 16 16 17 16 15 17 16 17 18 17 16 14 13 12 11 10 11 11 11 11 11 12 12 12 11 9 9 9 8 8 7 6 6 7 8 7 7 6 5 5 4 5 5 6 6 7 8 8 8 7 7 7 8 8 7 7
12 9 6 7 8 8 8 9 9 8 4 6 9 5 4 6 4 6 5 7 8 5 8 10 17 11 6 13 11 19 27 25 23 21 22 21 19 19 17 17 16 15 16 17 16 15 17 16 16 17 16 15 14 13 13 12 11 11 11 12 12 12 12 13 12 10 10 10 9 8 7 5 4 5 6 8 7 6 5 5 4 4 4 4 5 5 7 8 8 8 7 6 5 5 5 5 5
11 9 7 8 9 9 8 9 8 5 3 9 10 4 3 4 1 5 4 5 7 6 11 11 15 12 4 7 10 22 30 25 23 24 23 21 20 18 16 16 16 17 16 16 16 15 16 16 15 15 15 14 13 13 12 12 12 11 12 12 12 12 13 13 11 10 9 9 8 7 7 5 3 3 5 7 7 6 5 4 4 3 3 3 3 4 5 7 9 8 8 7 6 5 3 3 3
10 7 8 8 9 9 8 9 6 2 3 8 8 2 2 3 3 3 4 6 5 5 12 10 10 11 4 5 15 24 29 26 24 25 23 21 20 18 17 17 16 18 17 16 17 16 16 16 16 16 15 14 13 12 11 12 12 11 12 12 12 13 13 13 11 9 9 8 8 7 6 6 4 3 4 4 5 6 6 4 4 3 3 2 3 3 4 6 8 9 9 9 8 7 5 3 3
11 7 8 9 8 6 4 6 6 4 3 5 5 2 2 4 4 4 5 6 5 7 12 12 11 11 7 11 19 26 28 24 24 23 22 20 19 19 17 16 16 17 17 16 17 18 17 16 17 16 16 15 13 11 10 11 11 10 11 11 11 12 13 12 9 8 8 8 8 6 5 6 5 4 4 4 4 4 6 5 4 4 4 3 3 3 4 5 7 9 10 10 9 8 6 4 4
13 10 7 9 8 3 4 6 6 6 4 3 4 2 5 5 4 5 7 6 6 9 10 13 15 14 13 16 21 26 26 23 23 23 22 20 19 19 17 16 16 16 17 16 17 19 17 17 18 17 16 15 13 11 10 10 10 9 9 10 10 10 11 11 9 8 7 7 8 6 5 5 4 4 4 4 3 3 5 6 5 5 5 4 4 4 4 5 6 9 11 11 11 9 6 5 5
12 11 8 7 6 4 7 9 7 6 5 6 7 6 7 4 5 8 7 7 6 8 11 13 15 16 17 19 23 25 24 23 23 21 22 21 18 18 16 15 16 16 15 15 16 19 18 18 18 17 16 15 13 11 10 9 9 9 10 10 10 9 9 9 9 8 7 8 7 5 5 5 4 4 4 4 3 4 4 4 5 5 4 4 5 4 3 4 5 7 10 12 12 10 8 8 8
9 11 13 7 4 7 8 9 8 6 6 7 9 8 7 5 7 9 8 9 4 2 7 12 13 15 18 20 23 24 23 23 23 22 21 21 19 19 17 15 15 15 15 14 16 18 18 18 18 17 15 15 12 11 9 9 9 10 10 11 11 9 9 8 8 7 7 8 7 6 6 5 5 4 4 4 3 3 2 2 3 3 3 4 5 4 4 5 4 5 7 10 12 13 12 12 11
9 10 15 11 7 8 5 7 8 6 8 9 9 8 8 8 10 9 10 11 6 3 4 10 11 14 17 19 21 22 22 23 23 23 21 20 19 19 18 17 15 15 15 15 16 18 18 18 17 16 15 15 12 10 9 8 9 9 9 11 11 10 9 9 8 8 8 9 9 8 8 7 6 6 5 4 3 2 1 1 1 1 2 3 4 5 6 6 6 6 7 8 10 13 14 15 15
11 8 12 14 13 11 6 7 7 6 9 10 9 9 9 10 10 9 10 11 7 3 4 8 12 14 17 20 21 21 21 21 22 22 20 18 17 17 18 17 15 15 15 15 16 17 18 17 16 16 15 14 12 11 9 8 9 8 9 10 10 10 10 11 10 10 10 10 10 9 9 8 7 5 4 3 2 2 3 3 2 2 2 3 3 3 4 5 6 7 8 8 8 10 12 13 14
14 11 9 11 13 14 12 10 9 9 9 9 10 11 11 11 9 11 13 8 4 4 5 9 13 15 18 20 21 22 21 20 21 21 20 18 16 16 16 16 16 16 16 16 17 17 17 17 16 16 15 13 12 12 9 8 8 9 10 10 10 11 11 12 12 11 11 11 10 10 10 8 6 4 3 3 3 4 3 3 3 3 3 3 3 3 4 5 6 7 8 8 8 9 10 11 11
14 16 11 9 11 12 12 12 12 11 10 9 9 11 11 8 7 11 11 4 1 5 8 10 12 15 18 20 22 23 22 21 20 19 19 17 17 17 16 16 15 15 16 17 16 16 18 17 16 15 14 13 12 11 9 8 9 9 10 9 11 12 12 13 13 12 12 11 10 10 10 8 6 5 5 5 4 4 4 3 3 3 4 4 4 5 5 5 6 6 7 8 8 10 10 10 11
10 18 14 10 11 10 11 11 11 10 10 10 10 11 9 4 5 7 5 3 3 7 10 11 12 14 17 20 22 22 20 20 19 18 18 17 18 17 16 15 14 15 15 16 16 17 17 17 15 15 13 13 13 11 9 9 9 9 10 10 11 11 13 14 13 12 11 9 8 9 9 7 7 6 5 5 4 4 4 4 4 5 5 6 5 6 7 7 7 7 8 9 9 11 10 11 12
7 13 13 12 13 12 12 11 11 9 8 11 11 11 9 6 8 8 4 6 5 9 10 11 13 14 17 20 22 20 19 19 19 19 18 17 16 14 14 14 14 14 14 15 15 16 17 16 15 14 13 13 14 11 9 10 11 11 12 11 10 11 13 12 9 10 9 8 8 9 7 7 6 5 4 4 4 4 5 5 6 6 7 7 7 7 7 8 9 9 10 10 11 12 12 12 12
7 9 10 12 13 13 15 14 13 11 8 10 9 9 10 10 11 9 5 6 7 9 10 11 13 15 18 21 22 19 18 19 17 17 16 14 12 12 13 12 13 12 11 13 14 15 17 17 16 15 14 15 15 13 11 11 12 13 12 10 10 13 12 8 7 8 8 8 8 7 6 6 5 4 4 4 4 4 5 6 7 7 8 9 9 9 9 10 10 10 11 10 10 11 11 11 12
10 10 8 8 9 10 15 16 14 12 10 10 8 8 9 13 14 9 7 7 9 10 11 12 13 16 19 21 21 18 18 17 15 14 13 13 11 11 12 11 12 11 10 12 13 15 17 17 17 16 15 15 15 14 13 12 14 14 11 9 12 13 8 7 7 6 7 8 7 7 7 6 5 5 5 5 5 5 6 7 7 8 9 10 10 11 12 12 11 12 11 10 9 9 9 10 11
9 10 8 7 7 7 13 16 14 12 10 12 11 8 8 14 15 11 9 9 11 12 12 13 15 17 20 21 20 18 17 15 13 13 11 11 11 11 11 11 12 11 11 12 12 14 17 19 18 16 16 16 16 15 14 15 15 12 9 9 12 11 8 7 7 6 7 7 6 6 6 5 5 6 6 5 5 6 6 7 7 9 10 10 10 11 11 10 10 12 11 10 9 10 9 10 11
9 9 8 9 7 5 11 14 14 13 11 14 13 7 7 12 14 11 10 11 12 13 13 15 16 18 20 21 19 16 14 13 12 12 11 10 9 9 10 10 11 10 10 11 12 14 17 20 18 16 16 15 15 15 15 18 17 12 10 11 12 11 10 8 8 8 7 5 5 5 6 6 6 7 8 6 6 6 6 6 7 9 10 9 9 10 9 8 8 9 10 10 10 10 10 9 11
10 9 8 10 10 6 8 12 16 16 11 14 14 9 7 9 12 11 10 12 14 13 14 15 17 19 20 20 18 15 14 13 12 11 10 8 7 7 8 8 8 8 8 9 11 14 17 19 17 15 14 13 13 14 15 18 17 14 11 12 12 11 10 9 9 8 6 6 6 6 7 7 6 7 8 7 7 6 6 6 7 8 9 8 7 7 7 7 8 9 8 10 10 11 10 9 10
9 10 8 9 12 9 7 10 15 16 11 13 15 12 8 7 11 11 11 13 14 13 14 15 16 18 19 20 18 16 14 13 11 11 9 7 7 7 6 6 5 5 7 9 10 13 16 18 17 14 13 12 12 13 15 17 17 14 12 12 12 10 10 10 9 8 7 7 7 6 7 6 6 6 6 6 6 6 6 6 7 7 7 6 6 6 6 7 9 9 8 8 9 11 11 10 10
11 11 8 7 11 11 9 8 11 16 13 13 15 14 10 6 9 12 12 14 14 12 12 13 15 16 18 19 17 15 13 11 11 11 10 9 9 8 6 6 4 3 5 8 10 12 15 16 16 15 14 14 14 13 15 16 15 13 11 12 12 10 10 10 9 8 7 6 6 6 6 5 5 5 6 6 6 5 5 6 7 7 6 5 5 5 6 7 8 10 9 8 8 9 10 11 10
13 14 10 9 9 11 10 6 9 14 14 13 14 14 13 9 10 12 12 14 13 11 11 12 14 17 18 17 15 14 13 13 12 11 11 11 9 9 11 9 5 4 6 8 10 12 14 15 15 16 17 17 16 14 15 16 15 12 11 12 11 9 9 9 8 7 6 6 6 6 5 5 5 5 6 6 6 5 5 5 6 7 6 5 5 5 5 7 8 9 10 8 7 7 8 9 9
12 14 12 10 9 10 11 7 7 10 12 13 14 14 14 12 11 13 13 13 13 12 12 14 16 17 17 16 15 14 14 14 13 11 9 9 7 7 11 12 9 7 8 9 11 13 15 15 16 17 19 20 18 15 15 15 14 13 11 11 10 9 8 7 6 6 5 5 5 5 5 5 5 5 6 6 6 5 5 5 6 7 7 6 6 6 6 7 8 8 9 9 8 7 7 7 8
12 12 11 10 9 8 11 9 7 7 9 11 14 14 14 14 11 13 13 12 13 13 14 15 16 14 14 17 15 13 14 13 13 12 9 9 10 10 11 11 10 9 9 10 12 13 14 15 17 20 21 20 17 15 14 13 13 11 10 10 9 8 7 6 6 6 5 5 5 5 4 4 4 5 5 5 5 5 5 6 6 7 7 7 7 7 7 7 7 7 8 10 9 8 7 7 9
10 9 9 9 9 7 9 9 7 6 7 9 14 13 11 13 13 13 14 12 13 15 14 12 12 12 13 15 14 13 13 13 13 12 11 12 14 15 13 10 9 10 9 10 11 12 14 15 18 22 21 18 15 14 13 11 11 10 9 9 8 7 7 7 7 6 5 5 5 4 4 4 4 4 5 5 5 5 5 6 6 7 8 8 8 7 7 7 7 8 9 9 9 9 9 8 9
8 9 9 8 11 9 6 10 8 6 5 4 10 13 9 11 12 11 14 15 13 13 11 11 13 14 15 16 14 14 15 14 13 13 13 14 14 15 15 13 10 10 11 11 11 12 14 16 19 21 20 16 14 14 13 11 11 11 9 9 8 7 7 7 6 5 4 4 3 3 4 4 4 4 4 5 5 6 6 7 7 8 8 9 9 8 8 9 9 9 9 10 10 10 10 9 9
10 11 10 8 12 10 2 8 10 7 5 4 7 11 8 10 12 11 13 15 12 9 9 12 14 14 16 19 17 15 14 13 13 13 14 15 15 14 15 15 12 11 12 12 13 13 14 16 19 20 18 15 14 14 12 11 11 11 9 8 8 7 6 5 5 4 3 3 3 3 3 3 3 3 4 4 6 7 7 7 8 8 9 9 9 9 9 9 10 11 11 11 11 11 10 10 10
9 11 11 7 12 12 4 8 11 7 8 9 9 9 7 11 14 13 12 13 12 9 11 15 15 13 14 17 16 13 11 12 13 14 15 15 14 14 15 15 14 12 12 13 14 15 16 18 20 19 17 15 14 13 12 11 10 9 9 7 7 6 5 5 5 4 4 4 4 3 3 3 3 3 4 4 5 6 6 7 8 9 10 10 9 9 10 10 11 12 12 11 12 12 13 12 12
8 10 10 5 9 12 7 8 10 8 7 8 10 10 6 10 14 15 14 14 14 11 11 16 17 15 13 14 14 12 11 12 15 15 14 14 14 16 16 14 14 13 13 14 16 17 19 21 20 17 16 14 12 13 12 10 9 8 8 7 7 6 6 6 6 6 6 5 5 4 4 3 3 3 4 5 5 6 6 8 9 9 10 10 10 10 11 11 11 10 11 11 12 13 14 14 14
7 12 12 8 8 9 8 8 8 8 4 4 9 12 7 7 12 16 17 16 15 14 13 15 18 17 15 13 13 14 13 14 17 17 15 14 14 16 16 15 16 15 15 16 17 19 20 19 17 15 14 13 12 12 11 10 9 8 7 6 7 6 6 7 6 6 7 6 5 5 4 4 4 5 6 7 6 6 7 7 8 8 8 8 10 10 10 11 11 11 11 12 12 13 14 15 15
5 12 14 10 8 8 7 7 7 6 3 4 11 12 8 6 9 14 17 17 16 17 16 17 18 18 17 15 14 15 15 15 16 16 15 14 14 14 15 17 19 18 18 18 18 19 18 16 14 13 13 12 12 12 11 10 9 7 6 6 7 7 7 7 5 5 5 4 4 4 3 2 3 4 6 7 6 6 7 7 7 7 7 7 8 8 9 9 11 11 11 12 12 13 14 15 16
5 11 14 11 9 8 7 7 8 6 6 9 12 14 10 7 7 11 13 15 16 15 15 16 19 20 18 18 16 15 15 15 16 16 15 15 15 14 16 17 19 20 19 19 18 17 16 15 14 13 13 12 11 11 10 9 8 7 6 6 7 7 7 6 5 4 4 3 3 3 3 3 4 5 6 7 9 8 7 8 8 7 7 7 7 7 7 8 10 11 11 12 12 13 14 14 16
8 10 13 11 9 8 6 6 6 6 8 12 14 15 12 9 8 10 11 12 14 13 13 14 17 19 18 18 17 15 15 16 18 18 17 16 15 16 17 19 22 23 22 21 20 17 16 15 14 13 12 11 10 10 10 9 8 8 7 7 6 6 5 5 4 4 3 3 4 4 4 3 3 5 5 6 9 8 7 8 8 7 7 7 6 6 7 8 9 10 11 11 12 13 13 14 15
10 10 11 10 8 7 6 6 6 8 9 11 15 15 13 11 7 7 10 14 16 15 14 14 16 18 19 19 17 16 16 17 20 21 19 18 18 18 19 23 26 26 25 23 20 18 16 15 14 13 12 10 10 9 8 7 7 7 7 6 6 6 5 5 4 5 3 3 4 2 2 2 2 3 4 5 7 7 7 7 8 7 7 7 7 7 8 8 9 9 10 10 11 12 13 14 14
11 11 11 10 9 7 8 9 8 9 7 5 11 14 11 10 7 4 8 12 14 14 15 16 18 20 21 20 18 17 17 18 21 21 19 20 21 21 23 26 27 27 25 22 20 17 16 15 13 12 11 10 9 8 6 5 5 5 5 4 4 4 4 4 3 3 2 1 2 1 1 2 2 3 5 6 6 7 7 7 7 7 8 8 9 10 10 10 10 10 10 10 11 12 13 14 14
13 12 12 11 9 9 10 10 8 9 5 4 7 10 8 9 6 4 6 6 6 9 12 16 19 21 20 19 18 17 18 21 22 22 22 22 22 24 27 28 28 26 24 22 20 17 16 15 12 10 11 10 8 8 6 6 5 4 3 2 2 2 2 2 1 1 1 0 1 1 1 2 2 4 6 8 8 8 8 8 8 8 9 9 10 11 12 12 12 11 10 11 11 11 13 14 15
13 12 12 11 9 8 9 8 8 9 8 7 8 7 7 7 4 5 5 4 3 5 8 11 14 17 18 18 18 19 20 22 24 23 24 23 23 28 30 27 26 25 24 22 19 17 17 16 12 11 12 11 9 8 7 5 4 1 1 2 2 2 2 2 1 1 1 1 2 2 3 4 4 5 7 9 9 8 8 8 9 9 10 10 11 11 12 11 12 13 13 13 13 11 12 14 15
12 11 11 11 9 7 4 2 2 4 5 7 8 6 3 3 4 4 2 4 5 6 9 11 12 14 17 19 20 20 21 23 25 26 27 25 25 29 28 26 25 22 21 20 18 17 17 15 13 12 12 11 9 7 5 3 1 3 4 5 4 3 2 0 1 2 2 3 3 4 5 6 7 7 8 9 9 9 9 10 10 11 11 11 11 12 12 12 13 14 14 14 13 12 12 14 15
9 11 12 11 10 8 5 2 3 0 5 6 8 7 4 4 4 4 5 6 7 8 10 12 14 16 18 20 22 23 23 24 24 26 26 24 24 26 26 26 26 21 18 17 16 15 14 13 13 12 11 10 8 5 2 1 3 4 4 4 3 1 1 1 2 2 3 3 4 5 6 7 7 7 8 8 8 9 10 11 11 11 12 12 12 12 13 13 14 15 15 14 13 13 14 15 15
8 10 11 9 6 6 5 5 4 5 8 6 8 10 9 7 5 6 8 9 10 10 11 13 15 17 19 20 22 24 24 22 21 23 24 24 25 26 24 24 23 21 19 17 16 15 13 12 12 11 10 8 6 4 2 0 1 2 2 2 1 1 1 2 1 2 2 3 4 5 6 6 6 6 7 8 8 9 10 10 11 11 12 12 12 13 14 14 15 16 16 16 16 16 16 16 15
9 8 10 8 6 6 6 6 6 8 9 6 8 11 9 8 6 8 10 11 12 12 13 13 15 17 19 20 21 22 22 22 23 26 29 29 25 23 23 24 24 23 22 19 17 16 14 12 11 10 8 5 4 3 1 1 0 0 1 1 1 1 1 1 1 1 2 3 3 4 4 4 5 6 7 8 8 9 10 10 11 11 12 12 13 13 14 15 15 16 17 17 18 18 18 19 17
9 9 11 9 7 7 7 7 5 7 7 7 8 9 8 7 7 11 12 12 13 14 14 14 15 18 18 18 19 19 22 27 30 34 35 28 23 24 28 30 28 26 22 19 17 14 13 12 11 8 6 4 3 2 2 2 2 2 2 2 1 0 1 1 1 1 1 2 3 3 4 4 6 6 7 8 9 9 10 10 11 11 12 12 12 12 13 14 14 15 16 17 18 18 18 19 19
10 10 11 10 8 6 7 8 7 6 6 7 7 7 5 4 4 9 12 13 13 14 14 12 13 17 17 18 20 22 26 31 34 36 34 30 30 33 32 29 26 23 18 16 15 13 13 13 10 7 6 4 3 2 3 3 3 3 3 1 1 1 1 2 2 2 2 3 3 4 4 5 6 7 8 8 9 9 10 10 10 10 11 11 11 12 13 13 14 15 16 16 17 17 17 17 17
13 10 10 11 9 7 7 9 9 7 6 5 6 7 4 4 2 1 5 9 11 13 13 11 14 18 18 18 21 24 27 28 28 30 31 33 37 37 33 27 22 19 18 18 16 14 13 11 7 5 6 5 3 3 4 4 3 3 3 1 1 2 3 4 3 3 3 3 3 4 5 6 7 7 8 8 8 9 9 9 9 9 10 11 12 13 14 16 16 16 17 17 17 17 16 16 16
Wind_Direction
276 280 286 294 307 315 297 302 295 256 261 273 269 273 272 271 307 296 276 297 293 20 15 340 339 254 263 350 338 346 342 325 346 343 81 94 141 149 156 162 162 158 159 177 183 181 183 184 176 167 169 174 164 155 154 153 151 151 151 151 147 142 140 136 132 129 125 123 120 119 116 116 118 119 120 121 122 123 124 122 122 125 127 128 126 118 110 106 103 102 107 110 108 105 99 94 91
270 275 283 293 298 299 288 292 293 274 264 267 259 262 268 260 273 278 288 324 334 19 360 352 94 185 339 358 291 264 243 4 21 63 103 122 138 145 158 161 159 159 159 175 181 181 182 182 176 166 168 173 162 155 154 154 151 151 150 148 145 141 139 135 131 128 124 122 119 116 114 117 119 119 120 123 126 127 128 126 127 130 133 132 126 119 111 106 105 108 109 107 104 100 96 90 89
266 268 275 289 276 275 276 254 266 273 267 265 263 260 264 272 276 286 309 336 348 340 281 214 189 174 237 243 220 256 231 81 75 91 112 132 142 151 157 155 157 159 159 173 179 181 182 180 175 164 167 172 160 156 154 154 152 149 149 147 145 142 138 134 131 127 123 118 116 117 118 120 120 121 122 124 130 132 133 134 135 137 140 136 132 126 118 109 110 116 115 109 102 98 92 88 89
264 259 238 258 259 251 257 246 257 269 264 264 268 267 268 280 289 302 313 321 307 244 234 241 227 160 271 270 335 265 219 101 129 112 129 143 154 155 155 154 155 159 161 172 178 182 184 179 171 163 167 169 161 157 155 155 152 150 150 147 145 142 136 133 129 124 122 119 119 122 122 123 123 127 127 128 132 134 135 136 136 140 145 142 139 133 124 115 118 122 118 114 108 97 88 88 93
257 252 217 229 257 260 258 256 261 258 259 266 270 272 278 287 297 311 295 284 256 228 222 249 248 139 254 291 323 282 89 107 138 127 132 140 150 152 158 156 154 158 162 171 176 181 183 177 169 161 167 169 162 158 156 155 153 153 151 149 146 141 137 132 127 125 125 125 125 124 125 127 125 126 128 129 129 129 131 133 138 143 150 151 148 144 135 123 130 131 124 121 112 98 94 96 95
240 236 209 217 251 270 260 254 254 253 254 259 265 273 279 289 297 301 272 243 189 204 219 247 259 261 237 215 245 286 118 136 121 137 133 141 149 154 162 156 155 157 163 171 174 180 180 173 169 159 168 171 163 161 157 155 155 156 153 151 146 141 137 132 130 129 129 129 127 125 127 128 128 130 129 129 128 125 130 144 155 159 168 172 165 162 148 130 141 144 134 122 107 102 103 101 96
206 215 202 209 232 228 246 252 253 258 254 253 256 264 275 289 286 273 261 231 199 185 207 235 258 273 251 177 208 224 220 151 101 147 140 146 151 157 161 152 156 157 166 172 170 180 177 170 167 157 169 173 165 162 158 157 159 158 157 154 146 141 138 135 134 132 133 131 129 128 131 134 138 138 134 133 130 132 146 162 172 167 164 167 164 156 143 135 143 147 138 118 108 110 109 105 99
199 217 211 221 234 212 238 253 252 258 260 258 253 257 274 286 253 261 252 226 240 217 215 225 244 258 228 179 221 208 209 145 118 146 140 149 152 158 156 147 157 158 166 167 167 179 173 167 165 158 168 173 168 164 160 161 162 161 161 157 149 144 141 140 139 139 138 134 131 134 142 148 147 143 137 136 135 141 147 155 160 154 142 139 146 139 136 138 138 141 136 120 114 115 113 108 101
201 213 213 231 245 233 239 251 250 253 251 243 242 248 259 256 203 251 258 250 257 250 247 255 237 245 209 199 212 146 194 158 133 140 141 150 152 157 152 149 159 157 163 164 170 178 169 166 163 160 168 172 170 165 165 165 162 162 161 158 153 149 147 146 146 144 138 134 135 143 157 158 151 150 145 139 139 142 142 146 148 146 136 119 126 133 136 139 138 139 135 123 119 119 115 109 104
201 212 221 228 241 244 241 248 248 248 244 239 244 243 248 250 239 249 260 262 261 255 254 256 233 238 237 210 192 149 187 155 139 145 146 151 152 156 149 151 159 157 164 165 170 175 168 165 162 163 167 170 170 166 167 167 165 165 160 155 154 153 152 152 151 144 138 139 144 154 164 159 156 156 145 141 141 141 140 138 136 132 126 116 119 132 139 143 143 141 133 125 122 120 115 109 105
204 208 224 233 233 242 243 250 247 240 237 238 243 239 248 254 256 259 261 263 261 259 250 239 230 230 230 221 188 183 192 149 146 151 149 153 153 155 151 153 162 161 166 165 166 171 170 166 164 166 170 169 167 167 166 167 170 168 157 150 153 153 152 153 151 146 145 149 155 163 164 161 159 153 146 143 143 139 136 130 124 120 115 115 118 130 141 146 147 143 135 129 126 121 116 111 104
216 199 205 232 232 241 246 252 249 239 232 232 237 235 241 246 251 257 258 260 253 251 240 223 226 219 217 214 173 193 195 152 151 157 153 154 155 156 154 156 163 164 164 163 166 170 170 170 169 169 172 171 166 166 165 167 168 166 158 153 154 153 152 152 149 147 150 157 161 165 164 164 156 151 150 145 143 140 135 127 121 118 111 112 118 132 143 149 151 147 140 134 129 125 120 113 107
222 207 201 231 238 247 247 249 249 246 245 235 237 224 221 232 235 243 255 262 251 245 237 222 218 211 214 200 154 179 177 154 157 162 157 155 158 158 158 162 165 167 162 160 165 166 167 170 173 172 173 173 168 164 163 167 165 161 160 158 159 156 156 154 152 150 153 159 162 163 162 162 153 152 153 145 144 140 136 130 124 119 112 111 116 132 146 155 159 156 146 138 134 130 126 119 114
220 219 218 236 238 246 246 246 243 243 250 227 201 180 191 223 228 246 263 266 256 245 239 223 210 213 213 190 168 180 169 158 161 160 158 158 161 161 163 165 164 167 163 162 168 163 164 167 171 175 176 175 171 166 164 166 164 161 158 160 162 162 162 159 158 157 157 161 163 162 157 157 155 153 151 145 144 143 143 135 128 122 118 117 119 134 150 163 168 167 156 146 139 134 135 129 123
217 217 227 243 236 236 234 236 244 246 245 177 150 148 187 220 232 259 267 266 268 244 236 218 202 213 204 195 197 183 172 161 161 159 159 162 163 162 164 165 164 166 164 167 170 164 165 169 173 174 174 177 175 172 171 169 165 163 160 158 162 166 167 165 166 166 164 161 162 163 157 155 153 149 147 146 146 149 150 143 138 132 128 125 127 136 152 170 178 178 175 167 155 143 141 137 131
213 215 222 238 236 231 224 222 235 242 223 135 139 141 205 206 218 266 275 271 274 240 229 211 198 209 202 207 197 172 172 160 159 162 161 161 160 161 162 162 164 167 167 169 169 167 170 175 178 173 171 175 173 175 177 174 169 167 165 158 160 165 167 168 167 167 164 160 164 162 147 137 136 135 140 144 144 149 152 151 148 144 143 137 137 142 154 174 186 190 194 196 191 171 155 148 143
204 215 220 229 232 227 220 214 219 233 187 137 144 155 239 206 211 269 267 254 265 238 216 202 195 205 227 208 162 167 174 160 158 164 162 161 158 159 160 162 166 170 171 169 170 171 174 177 177 175 173 169 165 173 178 178 175 172 169 163 163 163 166 166 163 161 159 161 164 147 120 120 127 114 130 138 137 146 154 158 160 162 163 157 155 156 164 179 191 199 205 211 219 221 212 192 185
194 210 221 225 227 226 230 218 202 217 182 147 155 174 269 278 348 299 246 228 243 224 201 193 187 191 210 148 149 177 179 161 160 164 163 163 161 160 161 166 168 171 170 170 177 177 178 180 180 181 178 168 163 167 173 180 179 176 173 168 165 163 164 163 160 159 157 161 160 144 132 152 161 138 147 142 135 148 154 165 173 175 179 183 180 181 185 191 199 207 215 220 224 235 248 248 244
202 215 222 225 230 229 227 213 197 214 198 153 182 202 283 295 334 323 276 245 220 210 195 190 186 177 168 141 153 179 174 160 162 164 166 166 166 164 162 168 168 170 172 174 181 183 183 183 184 186 181 172 167 166 169 177 175 172 173 170 166 164 165 163 164 163 159 161 160 159 161 167 165 158 162 145 146 151 148 165 177 179 186 193 200 204 205 205 210 217 223 227 233 239 247 240 252
212 220 224 229 233 214 188 210 217 230 244 245 238 249 273 281 308 296 290 277 235 220 200 189 190 177 163 150 157 172 165 158 164 165 168 168 169 168 165 168 168 171 173 175 183 184 184 187 189 187 183 176 171 171 168 169 167 166 169 170 168 166 167 167 171 169 164 165 165 172 172 170 171 170 162 146 161 164 156 170 176 182 187 194 207 212 215 218 220 227 231 232 237 241 237 221 227
210 216 229 236 224 213 207 217 222 230 248 264 269 273 267 272 290 281 287 282 241 220 205 194 194 179 166 160 161 167 161 161 167 167 168 169 169 169 169 169 169 172 172 176 185 186 185 190 191 185 184 180 176 178 173 170 166 166 171 171 168 169 172 172 174 174 171 171 172 178 179 179 176 172 170 162 171 171 168 174 177 189 192 194 206 206 217 229 230 238 241 238 237 232 227 228 222
213 216 234 243 215 227 217 212 216 224 243 261 266 268 276 290 281 271 275 277 274 251 200 192 194 181 170 165 164 162 162 166 168 169 170 170 169 169 171 169 170 174 175 178 186 187 187 191 189 183 183 182 181 179 175 175 169 170 176 174 170 171 174 174 174 176 178 179 179 182 184 183 176 175 172 157 147 143 147 155 168 193 196 198 203 203 216 226 228 237 245 245 244 237 231 237 238
221 217 227 230 221 231 214 202 212 222 242 252 258 271 291 287 276 272 272 272 282 327 214 191 183 177 170 166 165 162 165 169 168 172 174 171 171 171 172 171 172 174 176 178 183 186 187 190 185 180 183 182 184 179 172 174 172 174 178 176 174 173 172 171 174 176 177 179 180 183 180 176 175 172 153 130 114 115 142 177 180 217 230 225 215 215 224 227 226 229 240 248 253 252 245 243 247
222 224 216 221 225 228 220 213 214 225 245 256 267 280 282 273 277 283 276 271 266 262 219 191 173 169 171 169 167 166 170 173 171 173 174 171 171 173 172 172 173 172 175 178 182 185 186 187 182 181 186 185 186 186 177 172 175 176 171 171 172 171 169 168 173 172 172 176 176 175 173 170 167 154 135 135 157 180 199 209 212 237 259 264 256 247 244 246 243 236 239 245 253 259 259 254 248
218 230 217 219 227 226 230 234 236 242 250 257 265 273 270 266 283 286 274 274 264 228 194 176 169 168 173 174 169 168 172 173 174 173 170 171 172 171 168 170 172 171 176 180 181 183 184 186 183 183 187 185 188 191 182 174 176 173 167 167 167 166 165 167 170 168 168 172 168 165 166 160 147 142 156 178 196 203 213 220 221 236 246 249 262 265 256 259 260 252 247 244 248 253 258 260 250
209 222 223 217 221 222 228 232 237 241 244 250 257 261 258 257 281 274 258 255 223 195 176 166 172 174 175 177 172 170 173 172 175 173 167 170 172 170 167 168 170 170 179 180 176 180 183 185 182 182 185 184 191 189 178 176 175 171 166 163 162 163 164 165 165 163 164 165 163 162 159 148 148 175 191 193 205 213 227 243 248 254 255 250 254 265 264 263 263 259 257 248 244 248 249 255 254
198 215 222 221 224 218 218 223 228 233 237 242 248 254 248 227 255 249 191 144 164 173 168 170 178 180 178 176 172 171 174 174 174 170 168 170 171 172 169 168 168 170 178 176 175 182 183 181 178 182 185 186 192 184 173 176 172 170 165 160 161 162 163 163 162 164 163 163 169 168 161 158 171 192 196 197 208 220 238 254 261 263 266 268 263 264 265 264 260 257 261 257 251 250 247 249 253
194 208 218 224 232 228 222 225 223 227 232 229 237 253 247 218 238 244 157 128 166 171 166 173 178 179 179 174 168 168 173 175 174 172 170 170 170 171 169 167 167 170 174 172 177 184 180 178 178 180 184 189 190 181 173 174 170 170 164 158 160 161 161 162 165 167 167 169 177 177 173 172 176 191 202 208 217 232 249 256 263 266 265 268 266 264 264 262 263 262 264 267 265 260 254 251 251
207 202 219 220 225 230 225 225 221 221 222 215 225 244 234 217 224 230 195 156 165 171 167 172 177 176 176 172 167 169 174 175 176 175 172 170 171 171 170 169 168 167 169 171 177 181 178 179 182 182 186 189 187 179 174 170 167 167 162 159 162 163 163 166 170 172 172 175 182 188 192 190 179 192 218 227 236 247 258 262 266 269 268 268 272 278 279 278 276 271 271 273 272 267 261 259 257
213 207 230 216 211 225 217 217 215 215 218 204 210 229 210 206 212 199 175 177 172 170 170 173 175 174 174 170 168 170 175 176 174 174 173 174 175 173 173 173 172 170 168 172 176 177 178 181 184 185 187 187 183 177 172 166 165 165 161 162 165 165 166 170 171 173 174 178 187 196 204 209 199 205 223 237 251 259 265 270 272 270 272 276 281 285 283 284 284 280 279 277 272 266 262 263 262
207 203 224 222 223 216 194 199 201 203 205 195 207 231 204 192 194 180 170 186 181 173 175 176 173 173 172 168 167 165 170 175 169 170 174 173 175 175 176 175 176 177 178 182 183 182 184 184 185 186 187 185 179 173 169 167 166 165 163 166 169 169 170 172 173 176 178 181 190 200 211 219 224 233 240 246 256 264 269 274 276 272 275 279 282 282 281 284 285 286 287 280 271 266 260 257 258
204 202 207 214 226 193 170 185 195 197 188 189 208 229 209 184 171 167 173 182 188 183 177 177 174 172 170 167 165 160 163 170 164 166 170 167 170 172 173 176 180 187 192 190 188 189 188 185 185 187 185 180 174 170 168 169 168 166 167 170 173 173 175 178 182 182 181 183 190 211 227 229 242 253 256 257 260 266 270 274 277 277 281 283 283 284 285 284 281 284 287 284 279 274 268 260 258
204 209 209 198 205 194 166 178 194 202 189 188 208 225 215 178 156 159 171 181 191 189 179 178 175 172 171 167 162 157 157 156 151 160 164 161 166 168 171 176 181 185 187 185 181 183 184 181 183 183 178 173 169 167 166 168 170 169 170 173 174 175 181 185 186 180 177 189 198 216 235 240 246 256 262 263 261 264 267 272 279 285 291 291 289 292 292 283 277 277 278 283 284 281 276 266 263
191 206 217 191 197 206 178 167 185 201 202 192 203 226 228 170 158 165 172 184 190 190 182 178 175 173 175 170 161 157 153 143 138 149 154 154 154 145 136 146 169 173 169 176 173 171 174 175 179 177 168 165 165 164 165 168 170 171 173 179 179 181 186 186 182 174 176 196 206 219 237 242 244 252 258 259 259 264 268 274 278 286 295 301 301 298 295 290 289 286 276 273 279 279 277 270 267
187 194 204 187 194 208 194 161 169 187 201 201 196 215 226 181 173 182 179 185 190 190 181 176 179 176 178 174 161 150 143 134 134 146 156 164 161 152 138 123 144 173 161 170 167 164 169 171 175 175 167 166 166 163 166 170 171 172 177 182 185 187 186 182 176 174 183 200 211 222 231 230 235 247 251 251 254 261 270 277 280 285 293 298 299 299 298 296 298 298 287 273 271 274 276 276 274
191 187 193 192 190 203 201 149 147 181 196 204 198 207 217 197 188 194 185 181 187 187 176 180 185 181 179 171 153 135 129 127 134 150 162 159 149 160 172 157 139 168 174 172 168 166 170 172 175 176 172 170 168 166 170 175 174 175 181 184 186 188 185 179 174 176 189 203 216 224 224 221 230 246 255 257 259 267 277 283 289 296 302 302 297 297 295 290 290 296 296 290 282 278 280 284 282
187 185 193 200 194 198 199 154 129 183 200 202 200 205 211 202 196 197 183 178 188 185 178 187 190 186 177 160 144 132 127 127 129 138 149 145 134 145 171 169 156 166 180 178 175 173 174 177 179 178 175 173 172 174 177 179 180 179 181 184 187 188 184 181 179 183 195 210 225 226 222 226 236 248 258 264 270 283 294 297 305 309 310 308 303 295 287 287 290 293 297 297 291 279 276 279 279
182 189 194 198 205 192 189 171 132 173 207 202 197 206 208 199 198 194 181 180 190 187 186 191 188 184 169 147 138 134 132 133 133 134 133 142 157 155 160 170 159 158 176 180 179 179 178 180 184 181 177 175 176 179 179 180 183 182 180 182 185 186 183 184 189 194 201 218 231 229 232 238 245 255 261 267 275 289 301 304 308 306 301 300 302 300 294 294 295 292 294 298 300 293 284 278 276
189 197 196 198 204 174 167 174 146 167 210 201 189 203 209 195 198 195 186 190 193 190 193 191 181 180 171 150 136 136 141 145 149 150 142 145 157 154 158 171 157 152 171 182 183 182 180 182 185 182 177 176 177 179 179 178 179 179 180 180 182 183 186 190 192 193 199 219 231 235 244 243 243 252 256 265 275 284 295 299 299 298 298 298 298 299 296 294 293 292 294 297 302 298 293 291 286
201 200 200 200 193 183 175 179 169 174 216 226 189 199 207 191 196 198 196 203 198 183 180 182 179 179 181 171 154 149 154 156 156 154 148 150 153 151 161 172 160 152 166 179 186 186 183 182 182 181 178 176 179 182 180 177 177 177 177 180 182 181 183 188 190 192 204 218 226 234 240 238 237 243 253 266 277 284 289 292 294 296 299 299 298 297 294 293 289 287 288 290 291 288 289 293 291
207 207 207 200 186 192 188 162 166 169 204 237 192 196 202 188 194 199 202 206 198 175 176 190 186 179 181 179 168 161 165 170 166 157 156 156 155 161 171 177 171 162 167 175 183 189 187 182 180 179 178 178 183 185 180 176 175 176 175 177 180 179 177 184 190 193 197 198 201 219 231 236 238 246 262 273 280 287 290 292 296 300 300 299 297 295 292 290 288 287 286 286 285 284 284 286 285
200 207 214 205 182 188 161 150 170 183 198 201 201 209 197 186 198 201 198 200 195 186 200 206 195 179 177 172 165 162 168 184 183 170 166 161 160 169 173 176 175 167 166 173 183 190 187 180 178 178 177 180 184 181 175 172 171 176 179 178 183 185 181 180 184 178 173 182 188 199 222 237 246 254 265 271 279 289 293 296 297 297 294 292 291 289 288 288 290 289 288 285 284 286 288 287 287
196 192 200 189 174 185 180 171 187 202 191 176 201 225 200 180 197 199 194 196 196 195 209 214 203 189 178 168 167 168 171 185 187 178 170 163 164 171 171 173 172 166 168 178 187 188 183 180 178 179 178 177 177 174 171 171 174 180 182 186 190 186 184 186 186 186 188 191 187 196 217 223 229 239 247 253 261 272 283 290 289 286 282 280 279 277 281 287 289 288 286 285 286 288 290 289 289
197 172 180 180 173 183 188 192 205 209 179 146 199 225 231 195 193 194 194 196 197 200 208 214 209 200 188 180 183 187 188 187 184 180 176 169 166 168 171 175 174 170 171 177 182 180 180 182 179 175 174 170 169 169 169 173 177 178 183 196 192 182 192 197 191 193 193 188 187 195 209 214 218 227 236 244 256 275 286 288 287 287 286 282 277 274 276 278 278 280 282 286 288 288 288 287 287
185 161 180 190 189 193 195 206 215 209 207 208 197 204 234 223 179 183 192 198 200 202 207 211 210 205 196 193 196 195 194 189 182 179 175 172 168 163 165 171 171 168 169 173 176 177 178 177 170 167 168 166 168 167 166 173 178 179 186 195 187 180 190 191 182 188 185 183 201 210 220 240 250 257 260 264 280 300 302 299 298 296 296 294 288 283 280 274 273 277 278 281 283 283 284 284 285
156 162 187 191 197 204 205 214 217 209 223 227 197 185 213 226 177 177 190 200 201 200 208 212 209 205 198 195 195 192 193 188 179 173 169 170 169 163 159 161 161 160 163 167 169 173 172 167 163 163 165 164 168 169 170 175 177 180 185 186 182 177 181 178 173 184 183 192 229 248 259 264 273 280 281 284 292 302 305 304 303 300 299 299 295 289 287 285 282 282 280 278 276 275 276 277 280
159 173 190 188 201 207 209 223 226 224 226 226 207 189 205 226 200 186 192 201 201 197 203 210 209 205 198 194 191 189 188 181 175 170 168 168 168 164 156 152 154 155 160 166 168 167 166 164 162 163 165 167 170 175 180 182 179 181 183 180 179 176 175 169 170 189 202 228 242 256 265 265 271 272 277 288 297 306 308 306 306 308 309 306 303 296 290 288 286 285 286 286 284 283 280 277 276
175 185 188 183 196 196 206 213 214 230 229 220 210 197 203 223 212 183 188 196 198 199 202 206 208 203 198 193 187 185 183 176 172 168 166 166 165 162 156 155 157 158 163 170 171 168 166 167 169 171 171 172 176 178 184 185 180 181 178 172 176 179 177 174 185 205 213 238 249 260 276 277 279 277 287 300 307 313 313 311 315 317 316 313 312 309 302 296 292 290 290 289 288 289 288 286 282
189 195 188 185 186 184 204 204 202 224 226 205 206 199 203 223 225 193 182 187 193 200 206 208 207 205 199 189 183 183 178 171 170 168 167 169 166 162 161 161 161 161 164 168 168 169 169 170 175 176 168 167 175 176 177 175 166 168 169 169 182 187 184 183 198 217 218 241 259 273 304 283 292 303 314 320 320 322 319 316 317 317 318 322 323 322 318 311 305 299 294 292 290 288 289 287 283
194 196 189 189 186 183 201 202 201 216 199 152 193 200 212 223 216 165 150 159 186 201 208 212 211 207 197 186 181 180 175 173 173 172 172 173 170 165 162 160 161 161 159 161 164 165 161 160 164 166 160 161 166 159 155 150 142 144 150 167 192 197 205 210 204 221 233 296 294 299 321 319 320 322 326 328 325 323 320 319 320 323 326 328 327 325 320 316 313 307 300 296 293 289 288 286 284
197 201 197 202 200 191 202 203 204 209 188 160 171 193 219 215 167 93 108 141 188 203 210 217 213 203 193 185 181 180 180 179 177 175 176 177 172 163 158 157 160 159 156 155 158 157 156 156 154 152 152 153 148 140 136 132 132 149 236 286 281 257 243 237 236 261 308 339 335 330 332 338 336 331 329 327 324 324 325 328 332 335 336 334 330 326 321 316 312 311 307 302 298 293 288 284 283
195 202 204 210 209 198 198 210 211 212 192 170 176 196 216 165 114 86 121 175 183 195 207 210 201 189 184 182 182 184 186 183 180 179 175 172 167 161 157 153 151 151 155 155 153 154 159 158 151 148 145 140 139 139 141 147 249 292 307 316 308 276 261 266 329 343 357 351 346 339 335 339 338 332 329 327 328 330 333 336 338 338 337 335 331 325 321 316 313 313 311 307 302 295 288 284 280
186 201 208 208 213 213 198 151 65 76 218 188 187 204 178 148 150 147 172 187 185 193 202 198 189 182 180 182 186 189 187 181 178 174 167 163 160 153 148 147 147 147 153 156 154 154 156 153 150 147 140 135 137 141 157 239 292 307 322 332 331 309 346 57 37 9 5 354 349 344 337 336 332 329 330 331 335 338 340 341 341 341 338 336 331 327 322 318 316 315 312 309 306 300 295 293 289
191 199 202 193 215 238 220 198 162 194 224 202 192 206 192 186 185 153 169 190 192 196 198 191 184 182 183 185 190 191 183 173 166 162 158 153 147 138 137 147 155 157 159 161 160 155 152 150 148 142 136 135 131 128 139 265 307 323 344 354 13 57 73 73 48 18 9 358 348 338 331 327 325 332 339 342 347 348 346 345 342 340 338 334 331 327 323 320 318 316 315 314 313 310 306 305 301
220 211 198 188 205 211 205 212 197 197 218 216 206 211 204 199 184 159 178 193 192 193 194 189 185 186 186 186 189 185 172 160 152 147 143 139 140 143 151 157 160 163 167 164 157 154 154 152 148 144 145 149 144 136 131 73 28 83 85 92 103 88 95 80 22 24 18 360 344 331 327 331 342 354 357 355 355 351 347 345 342 340 337 334 331 328 325 324 322 321 320 320 319 317 314 312 308
230 226 205 202 215 213 205 213 213 204 211 214 207 208 209 204 177 169 183 192 188 188 191 191 188 188 184 177 175 167 156 153 149 146 146 148 158 163 161 159 160 164 168 162 158 159 162 167 171 168 167 177 172 132 105 98 100 118 117 119 144 149 105 88 51 46 34 13 359 345 348 359 3 4 2 358 354 351 349 348 347 344 341 340 337 336 334 332 331 329 327 325 322 320 317 317 315
203 213 203 200 208 221 218 211 215 221 217 208 208 212 203 172 157 178 189 189 186 186 189 188 185 184 176 162 157 152 151 154 155 157 160 162 165 165 163 160 159 161 164 164 165 169 172 180 184 171 154 152 144 111 108 114 114 116 113 118 165 147 99 94 93 80 59 40 20 7 6 10 10 7 3 360 356 354 353 353 354 352 350 349 348 347 346 343 342 340 337 333 330 327 325 324 323
196 207 204 202 201 206 214 208 205 219 234 224 216 216 171 99 66 215 194 186 182 183 184 179 178 176 162 149 148 147 148 153 156 160 161 158 161 165 162 157 154 158 166 169 169 172 179 183 172 144 132 123 118 116 114 116 118 113 106 105 121 105 97 93 92 84 69 54 33 21 18 14 14 13 7 3 1 359 359 0 2 2 359 356 356 356 355 353 352 350 349 347 343 341 338 335 333